Tracking 23764 objects as of 18-Oct-2021
HD Live streaming from Space Station
objects crossing your sky now

CZ-11 R/B

Track CZ-11 R/B now!
10-day predictions


NORAD ID: 43872
Int'l Code: 2018-108B
Perigee: 651.7 km
Apogee: 1,144.0 km
Inclination: 100.4 °
Period: 102.8 minutes
Semi major axis: 7268 km
RCS: Unknown
Launch date: December 21, 2018
Source: People's Republic of China (PRC)
Launch site: Jiuquan Satellite Launch Center, China (JSC)

Note: This is a ROCKET BODY
aabbcc
Your satellite tracking list
Your tracking list is empty




NASA's NSSDC Master Catalog

Two Line Element Set (TLE):
1 43872U 18108B   21289.44286677 -.00000158  00000-0 -39803-4 0  9991
2 43872 100.4195  93.3608 0338634 115.8730 247.7755 14.00891209144142
Source of the keplerian elements: AFSPC